Temp
38 38 37 38 39 40 40 40 40 39 40 40 40 40 38 37 34 32 34 37 39 43 46 42 47 51 51 51 51 50 50 48 46 48 48 48 49 48 48 49 50 49 49 50 50 50 50 50 50 50 51 51 52 52 53 53 54 54 55 55 56 57 58 59 60 62 63 64 63 63 62 62 62 62
38 37 37 38 38 39 38 38 38 38 39 38 38 39 39 39 35 34 32 33 40 40 45 46 44 48 48 48 47 47 47 44 46 47 47 48 48 47 47 47 47 48 49 49 48 48 49 49 49 49 50 50 51 52 52 53 53 54 55 56 57 57 57 58 60 61 61 62 63 63 63 62 62 61
37 36 36 37 37 38 37 37 38 38 38 37 38 37 38 37 37 35 33 30 37 43 39 43 45 44 45 45 45 45 46 45 45 46 46 47 45 43 45 44 46 47 47 47 47 48 48 49 49 49 49 50 51 51 52 52 53 53 54 55 56 56 57 57 58 59 61 61 63 63 63 62 62 62
35 35 35 36 36 37 36 36 37 37 37 37 36 36 36 36 36 36 33 31 31 39 39 40 42 44 43 44 43 43 44 44 41 46 46 46 43 46 48 45 46 46 47 47 47 48 48 48 48 48 48 49 50 50 51 51 52 52 53 54 55 56 55 56 56 58 60 61 61 62 61 61 61 62
35 35 35 35 35 36 34 35 35 35 36 36 36 36 35 35 36 35 33 31 31 36 41 39 39 42 42 40 42 41 42 42 44 43 45 45 45 45 46 46 44 45 46 46 46 46 46 47 47 47 48 48 49 49 50 50 50 51 52 52 54 55 55 55 56 57 58 60 60 60 61 61 61 61
34 34 34 33 35 35 33 33 33 34 34 34 34 34 34 34 34 36 33 32 31 30 36 37 40 39 41 38 42 40 40 40 41 40 41 43 43 43 44 45 45 44 44 45 45 46 46 47 47 48 47 48 48 49 50 49 49 50 51 51 52 52 53 54 55 56 56 58 59 60 60 60 60 60
34 33 33 33 33 33 32 32 33 33 33 33 33 32 34 33 33 34 34 32 29 30 32 36 35 37 38 38 38 39 39 39 39 39 40 41 42 42 43 43 44 43 44 44 45 45 46 46 46 47 47 47 47 48 48 48 49 49 50 50 51 51 52 53 53 54 55 56 58 59 58 58 59 59
32 31 31 32 32 31 30 30 31 32 32 32 31 31 32 32 32 33 33 33 31 30 29 32 34 35 35 36 38 38 38 38 38 39 39 41 40 41 42 43 44 43 44 44 44 44 44 45 45 46 46 46 46 47 47 48 48 48 48 49 49 50 50 51 51 52 52 54 56 57 58 58 58 58
30 30 30 30 30 30 28 29 29 30 29 29 29 29 30 30 31 31 31 31 32 30 28 30 33 34 34 35 36 37 35 36 37 38 38 39 40 40 42 42 43 42 43 43 42 43 43 44 44 45 45 46 46 46 46 47 47 47 47 47 47 49 50 50 50 50 51 51 52 54 56 57 58 58
30 29 29 29 29 29 27 27 28 28 28 28 28 28 28 29 29 29 29 29 29 28 27 28 27 31 31 31 33 35 35 34 33 34 36 38 39 39 40 41 42 43 43 43 43 43 43 43 44 44 45 45 45 45 46 46 46 46 45 46 46 47 48 49 50 50 50 50 51 51 53 55 56 57
30 29 29 29 29 28 28 27 27 27 27 27 27 27 27 28 27 26 26 26 26 26 25 26 27 27 29 30 28 32 33 33 33 32 33 34 37 38 37 36 39 41 41 42 41 42 42 42 42 42 43 44 44 45 44 45 45 45 44 45 46 46 47 48 48 49 50 50 50 50 50 51 53 55
29 29 29 29 28 28 28 28 27 26 25 26 25 26 27 26 26 24 24 24 24 23 23 23 24 26 25 27 29 30 31 29 30 32 30 28 29 31 35 36 36 38 39 39 41 41 42 43 43 43 43 43 43 43 44 43 43 42 43 44 45 46 46 47 48 48 48 48 49 49 50 50 50 53
28 28 29 29 29 28 25 25 25 25 25 23 21 23 25 22 22 21 21 20 20 20 20 20 23 23 23 24 25 25 25 25 26 29 30 28 30 31 31 32 36 36 36 38 39 39 41 41 42 43 43 44 44 45 43 43 41 42 43 44 44 45 45 46 46 47 48 48 48 49 49 49 49 50
27 28 28 28 25 24 24 24 24 24 24 25 24 23 23 21 20 19 18 18 19 18 18 18 19 19 19 22 23 23 25 27 28 27 27 25 27 28 27 29 33 35 35 33 34 36 38 37 38 40 40 43 44 44 45 45 45 44 44 44 44 44 45 45 46 46 47 47 48 48 48 48 48 49
25 26 27 27 25 24 24 24 24 24 24 24 24 24 24 24 21 18 17 17 19 18 17 18 18 18 18 20 23 23 24 26 26 26 26 26 26 24 23 21 28 35 34 32 29 29 36 36 33 35 37 40 42 44 44 44 43 43 43 43 44 44 44 45 45 45 46 46 47 47 48 48 48 48
25 24 24 25 25 25 24 24 23 23 23 23 24 24 24 23 24 24 21 19 18 18 17 17 17 19 19 21 23 24 25 25 26 26 26 26 25 24 23 24 23 31 34 29 28 28 33 35 34 33 35 37 39 41 42 42 43 43 43 43 43 43 43 44 44 45 45 45 46 47 47 47 48 48
23 23 23 23 24 24 22 22 24 24 23 23 23 23 23 23 23 23 24 25 22 21 19 18 18 20 21 21 23 26 26 27 24 25 24 26 26 26 24 24 26 29 32 28 26 25 30 33 32 32 35 37 39 39 40 41 42 43 43 43 43 43 43 43 44 44 44 45 45 46 47 47 47 47
22 22 22 21 22 24 24 24 24 24 23 23 22 22 22 22 23 24 25 25 26 26 23 22 20 24 25 24 25 27 28 25 23 23 23 25 24 24 24 26 27 29 31 27 26 24 27 32 31 31 35 38 38 39 40 41 41 42 43 43 43 43 43 43 43 43 44 44 45 45 46 46 46 47
21 21 22 22 22 22 22 23 23 22 22 21 20 19 19 20 22 23 24 25 26 26 27 26 26 26 27 27 27 28 29 27 27 26 25 25 25 25 27 27 28 29 32 31 28 21 27 33 30 30 33 35 36 38 39 40 41 41 42 42 43 43 43 43 43 43 44 44 44 45 45 46 46 46
21 22 22 21 21 21 22 23 24 24 23 21 20 19 19 20 21 22 25 27 27 27 27 27 26 26 27 28 27 26 26 26 25 25 26 27 26 25 24 22 25 25 30 32 28 23 25 31 29 29 32 33 33 35 37 39 40 41 41 42 42 42 42 42 43 43 43 44 44 44 45 45 46 46
21 22 22 22 21 21 22 23 25 25 25 22 20 20 19 20 20 21 25 28 29 29 29 30 30 30 31 31 31 31 32 30 29 27 24 23 25 23 20 21 22 23 28 30 30 26 23 28 28 26 29 32 32 33 34 36 39 41 41 41 42 42 43 43 42 43 43 43 44 44 44 45 45 45
21 22 22 22 22 22 22 24 25 27 26 22 22 21 21 20 20 22 25 26 28 30 30 30 30 30 30 31 31 31 32 31 31 27 23 24 25 22 21 19 20 23 25 27 31 24 24 27 28 27 28 31 30 32 35 37 38 39 40 41 42 42 42 42 42 42 43 43 43 44 44 44 44 46
21 22 23 23 24 23 24 26 27 28 26 24 23 22 21 20 20 22 25 24 24 25 25 26 28 28 29 29 30 30 30 31 30 30 27 27 24 21 21 21 20 19 21 28 32 24 24 25 27 27 23 21 27 30 33 33 35 37 38 40 41 41 42 42 42 42 42 43 43 43 44 44 44 45
20 21 22 23 25 26 27 27 27 28 29 26 25 24 22 21 21 25 25 24 24 24 24 24 25 26 27 27 27 28 28 29 28 29 29 27 25 22 21 21 20 18 20 26 30 24 24 25 23 26 24 20 18 26 29 29 33 34 35 36 36 40 41 41 41 42 42 42 43 43 43 44 44 44
19 20 22 23 25 26 26 27 28 28 29 29 26 25 23 24 25 27 24 24 26 24 24 24 24 25 25 25 26 26 26 27 28 28 28 28 27 24 22 21 20 20 23 27 30 25 21 23 21 23 22 22 22 22 25 29 32 33 35 36 35 37 39 41 41 43 42 43 43 43 43 44 44 44
20 21 22 22 24 26 27 27 28 28 28 28 25 24 26 28 28 25 24 24 23 22 22 22 22 22 22 23 23 24 25 26 26 27 27 28 28 28 27 23 20 19 20 27 30 26 23 21 21 20 21 20 20 23 22 24 28 31 33 33 34 36 37 38 40 41 42 43 43 44 43 43 43 44
21 22 23 24 25 26 26 26 26 26 26 24 22 25 25 25 26 24 21 20 20 20 19 19 18 19 20 20 21 22 23 24 25 26 25 25 27 26 27 27 26 24 26 27 27 26 23 21 23 20 19 20 19 20 21 20 22 29 30 31 33 34 36 37 37 39 41 42 42 43 43 44 44 44
23 22 22 23 25 24 24 24 24 23 22 21 22 23 23 23 21 19 18 18 17 16 15 15 15 16 18 18 19 20 21 23 23 23 24 25 26 25 25 26 25 25 26 26 25 26 24 22 22 22 21 19 17 16 16 22 23 25 25 29 31 33 35 35 35 37 39 41 41 42 42 42 43 43
22 23 24 24 23 22 22 21 20 19 19 19 20 20 20 19 17 16 15 15 14 13 13 14 15 15 17 18 19 20 21 22 23 22 22 23 23 24 24 24 24 24 25 25 25 26 25 24 22 23 22 21 19 19 19 18 21 22 24 24 24 28 31 34 35 36 38 40 40 40 40 41 42 43
23 22 21 21 20 18 17 16 14 15 15 17 18 18 17 14 14 13 13 12 11 11 12 12 12 14 17 18 19 21 20 19 19 20 21 21 22 23 23 23 23 24 25 25 25 26 26 26 25 23 21 21 21 19 19 19 18 22 24 23 24 28 30 31 32 35 36 38 39 40 41 42 42 42
19 18 17 16 16 15 15 15 14 14 15 13 13 14 13 12 12 12 11 10 9 10 10 11 12 14 16 17 17 17 18 18 20 21 21 21 21 23 23 22 21 22 25 26 26 28 27 27 26 25 21 20 21 21 21 21 19 20 22 24 24 20 26 31 32 33 35 37 39 40 40 41 41 41
15 13 14 13 12 12 11 11 11 12 11 11 11 11 11 11 11 12 13 13 11 11 12 12 12 13 14 14 15 16 16 16 18 19 20 20 20 21 21 19 19 21 22 24 25 26 26 27 26 25 24 22 19 20 22 21 20 21 21 24 25 26 27 27 29 32 35 37 37 36 38 40 40 41
13 12 11 10 10 10 9 9 9 10 10 10 10 8 9 10 10 10 10 9 9 10 10 10 10 10 12 12 14 14 14 15 17 19 19 20 20 20 21 19 20 20 19 21 24 25 26 26 26 26 25 24 24 22 20 18 20 22 22 23 25 25 26 29 30 31 34 33 32 34 36 39 40 41
11 10 8 9 8 8 8 7 8 8 8 7 8 8 10 10 9 9 10 10 10 10 10 10 10 10 11 11 12 13 13 15 16 18 19 18 19 18 18 18 19 21 21 21 22 23 25 26 26 26 25 25 25 24 23 20 19 22 23 24 25 25 27 29 31 32 33 33 33 32 33 35 39 41
10 8 7 7 7 7 8 8 7 7 6 6 6 7 8 9 9 9 9 10 10 10 9 10 11 11 11 11 12 12 13 14 15 16 18 18 18 18 18 18 19 20 21 21 22 24 25 25 25 24 24 23 22 23 27 25 22 22 23 24 25 26 27 29 31 31 31 33 33 31 31 33 35 39
9 8 6 6 6 7 6 7 7 6 5 5 5 5 6 6 8 8 8 10 9 9 9 10 10 11 11 12 12 12 13 13 14 14 14 15 16 16 17 18 19 20 21 21 22 24 25 24 24 21 19 19 18 17 21 29 27 25 23 23 26 26 27 29 29 30 31 31 32 32 30 30 33 38
7 7 6 6 6 6 6 6 5 5 5 5 5 5 5 5 7 8 8 9 8 9 10 11 11 12 12 12 12 12 13 13 12 13 13 14 15 15 15 17 18 20 20 22 24 24 25 24 24 22 20 18 17 17 20 28 29 29 26 24 25 28 28 29 29 29 31 31 32 32 32 32 33 37
5 6 5 5 5 5 5 5 5 4 4 4 4 5 5 6 7 7 8 9 9 10 10 11 12 12 12 12 11 11 12 12 12 12 12 13 13 13 14 15 16 18 19 22 23 24 25 25 24 24 23 20 18 19 19 25 28 30 30 27 26 28 30 29 28 28 29 31 31 33 34 32 34 37
5 4 4 4 4 4 4 4 4 4 3 4 4 4 5 6 7 7 8 9 9 10 12 12 12 12 12 12 12 11 11 11 10 11 12 12 13 13 13 14 15 17 18 18 21 23 24 24 25 25 24 22 21 22 24 23 24 30 33 32 29 28 29 30 29 30 30 30 31 33 34 35 34 33
4 4 4 4 4 4 4 4 4 4 4 4 4 5 5 5 6 7 7 9 10 11 11 11 12 12 12 12 12 12 11 11 11 11 11 12 13 13 14 14 15 15 16 17 18 21 23 24 26 26 26 26 26 27 26 26 27 26 28 32 33 31 30 31 29 30 29 31 32 31 29 30 30 32
3 3 3 4 3 3 3 3 3 4 3 4 4 5 5 5 5 6 8 10 10 10 11 11 11 11 12 12 12 11 10 10 11 11 12 12 13 13 14 15 14 15 15 15 17 19 21 25 27 30 28 28 28 28 25 22 22 25 27 29 31 32 32 32 31 30 29 31 30 29 28 28 28 29
2 2 3 3 2 2 3 2 2 3 3 4 4 4 5 6 6 8 8 10 10 10 11 11 12 12 12 12 12 12 11 10 10 11 12 12 12 13 14 14 13 14 14 14 16 19 23 26 27 28 28 26 25 21 20 23 24 25 24 25 26 29 30 31 30 29 29 30 28 26 25 25 28 26
1 2 1 2 2 2 2 2 2 2 3 3 3 4 4 5 6 7 8 9 10 10 10 11 11 12 12 12 12 12 11 10 11 11 11 12 12 11 12 13 14 14 15 16 18 21 23 24 26 26 25 24 24 23 21 23 25 26 23 25 25 28 29 30 31 30 29 29 29 29 29 27 24 21
1 0 1 1 1 1 1 1 1 2 2 2 3 3 4 4 4 6 8 8 9 9 10 10 11 11 11 12 12 12 12 11 11 11 11 11 12 12 13 13 14 15 16 17 18 20 22 23 24 24 22 22 23 23 22 23 24 26 26 25 25 25 25 25 25 26 26 26 27 29 29 29 29 29
1 0 -0 0 0 0 0 1 1 1 1 1 2 2 3 3 4 6 7 8 9 9 9 10 10 11 12 12 12 10 11 12 12 11 12 12 12 13 13 14 14 14 15 16 17 18 20 20 22 23 22 22 22 20 21 20 21 23 23 22 22 23 23 23 22 21 20 20 23 27 28 29 29 29
MSLP
1030.45 1030.33 1030.35 1030.15 1029.81 1029.61 1029.55 1029.45 1029.27 1029.17 1029.01 1028.81 1028.55 1028.29 1027.99 1027.61 1027.27 1026.11 1024.71 1024.01 1023.47 1022.91 1023.21 1023.07 1022.23 1022.29 1022.15 1022.01 1021.95 1021.93 1021.85 1021.67 1021.69 1021.53 1021.33 1021.03 1020.69 1020.47 1020.39 1020.19 1019.99 1019.87 1019.73 1019.55 1019.39 1019.21 1019.03 1018.83 1018.61 1018.39 1018.15 1017.93 1017.69 1017.45 1017.21 1016.97 1016.79 1016.61 1016.45 1016.31 1016.17 1016.03 1015.89 1015.71 1015.59 1015.39 1015.47 1015.45 1015.51 1015.73 1015.95 1016.19 1016.47 1016.65
1030.41 1030.37 1030.29 1030.15 1029.91 1029.69 1029.69 1029.55 1029.45 1029.31 1029.13 1028.93 1028.63 1028.29 1028.01 1027.79 1027.55 1026.87 1026.31 1024.55 1023.93 1023.55 1022.97 1022.93 1022.35 1022.13 1022.29 1022.17 1021.97 1021.87 1021.63 1021.53 1021.61 1021.35 1021.05 1020.79 1020.45 1020.23 1020.17 1020.01 1019.83 1019.59 1019.33 1019.17 1019.05 1018.91 1018.71 1018.49 1018.29 1018.07 1017.87 1017.65 1017.41 1017.15 1016.91 1016.67 1016.45 1016.27 1016.11 1015.95 1015.79 1015.67 1015.57 1015.47 1015.31 1015.11 1015.07 1015.07 1015.09 1015.25 1015.45 1015.73 1015.99 1016.27
1030.55 1030.47 1030.37 1030.13 1029.95 1029.81 1029.77 1029.61 1029.39 1029.25 1029.09 1028.89 1028.69 1028.43 1028.09 1027.85 1027.57 1027.33 1026.79 1025.89 1023.37 1023.63 1023.49 1022.79 1022.71 1022.45 1022.19 1022.25 1021.85 1021.55 1021.39 1021.21 1021.27 1021.13 1020.79 1020.45 1020.17 1020.07 1019.81 1019.63 1019.43 1019.21 1018.99 1018.81 1018.65 1018.49 1018.29 1018.11 1017.91 1017.71 1017.51 1017.33 1017.11 1016.87 1016.61 1016.39 1016.17 1015.95 1015.79 1015.61 1015.47 1015.33 1015.23 1015.13 1015.03 1014.79 1014.57 1014.59 1014.71 1014.87 1015.07 1015.29 1015.49 1015.73
1030.67 1030.47 1030.29 1030.13 1029.99 1029.87 1029.75 1029.53 1029.31 1029.15 1028.99 1028.87 1028.67 1028.41 1028.15 1027.79 1027.55 1027.33 1026.93 1026.35 1024.45 1023.59 1023.69 1023.09 1022.45 1022.67 1022.23 1021.95 1021.87 1021.39 1021.13 1020.99 1020.97 1020.75 1020.41 1020.11 1019.95 1019.61 1019.17 1018.99 1018.93 1018.77 1018.61 1018.43 1018.25 1018.05 1017.91 1017.73 1017.53 1017.33 1017.15 1016.97 1016.77 1016.55 1016.33 1016.09 1015.85 1015.65 1015.45 1015.27 1015.11 1014.99 1014.89 1014.83 1014.75 1014.61 1014.33 1014.23 1014.33 1014.47 1014.67 1014.91 1015.05 1015.23
1030.57 1030.45 1030.33 1030.15 1030.01 1029.93 1029.87 1029.59 1029.39 1029.19 1028.99 1028.79 1028.55 1028.27 1028.01 1027.71 1027.39 1027.19 1026.93 1026.31 1025.01 1023.53 1023.33 1023.07 1022.43 1022.21 1022.37 1021.85 1021.77 1021.53 1021.09 1020.73 1020.57 1020.47 1020.23 1019.91 1019.65 1019.37 1018.99 1018.57 1018.39 1018.31 1018.17 1018.01 1017.87 1017.71 1017.53 1017.31 1017.11 1016.91 1016.71 1016.53 1016.35 1016.17 1015.97 1015.75 1015.57 1015.35 1015.15 1014.95 1014.77 1014.65 1014.57 1014.49 1014.41 1014.35 1014.21 1014.03 1014.03 1014.09 1014.23 1014.43 1014.63 1014.81
1030.59 1030.51 1030.35 1030.15 1030.01 1029.91 1029.91 1029.73 1029.57 1029.27 1029.05 1028.85 1028.59 1028.23 1027.97 1027.65 1027.33 1027.07 1026.91 1026.33 1025.73 1024.27 1023.13 1022.83 1022.45 1022.17 1022.29 1021.81 1021.49 1021.53 1021.33 1020.61 1020.55 1020.33 1020.05 1019.81 1019.55 1019.13 1018.75 1018.31 1017.81 1017.79 1017.75 1017.65 1017.47 1017.27 1017.07 1016.83 1016.61 1016.43 1016.27 1016.09 1015.93 1015.77 1015.59 1015.43 1015.25 1015.05 1014.83 1014.63 1014.49 1014.33 1014.25 1014.21 1014.17 1014.07 1013.99 1013.87 1013.77 1013.79 1013.85 1013.97 1014.13 1014.31
1030.65 1030.53 1030.33 1030.19 1030.05 1030.03 1029.95 1029.75 1029.53 1029.31 1029.11 1028.83 1028.59 1028.33 1028.03 1027.73 1027.35 1027.11 1026.93 1026.63 1025.93 1025.11 1023.79 1023.17 1022.57 1022.11 1021.91 1021.97 1021.53 1021.51 1021.49 1021.09 1020.59 1020.23 1019.77 1019.47 1019.19 1018.87 1018.51 1018.11 1017.71 1017.47 1017.39 1017.21 1017.03 1016.83 1016.61 1016.39 1016.17 1015.99 1015.83 1015.67 1015.49 1015.35 1015.19 1015.05 1014.91 1014.75 1014.55 1014.33 1014.17 1014.01 1013.89 1013.85 1013.85 1013.85 1013.81 1013.71 1013.57 1013.51 1013.55 1013.65 1013.75 1013.93
1030.77 1030.63 1030.47 1030.23 1030.17 1030.15 1030.01 1029.77 1029.55 1029.27 1029.07 1028.91 1028.69 1028.41 1028.13 1027.83 1027.51 1027.21 1026.95 1026.65 1026.25 1025.47 1024.65 1023.27 1023.05 1022.33 1022.13 1022.01 1021.85 1021.61 1021.41 1021.11 1020.43 1020.05 1019.69 1019.33 1018.95 1018.55 1018.15 1017.81 1017.41 1017.17 1017.09 1016.93 1016.65 1016.41 1016.23 1016.01 1015.77 1015.59 1015.43 1015.25 1015.07 1014.89 1014.73 1014.59 1014.49 1014.37 1014.21 1014.03 1013.83 1013.71 1013.59 1013.49 1013.45 1013.45 1013.47 1013.43 1013.35 1013.25 1013.19 1013.27 1013.41 1013.55
1030.85 1030.69 1030.53 1030.39 1030.27 1030.15 1030.05 1029.77 1029.55 1029.33 1029.29 1029.09 1028.83 1028.57 1028.27 1027.99 1027.63 1027.31 1027.01 1026.65 1026.27 1025.71 1024.95 1023.83 1023.21 1022.97 1022.57 1022.35 1022.07 1021.73 1021.37 1020.87 1020.45 1019.99 1019.63 1019.27 1018.71 1018.27 1017.91 1017.59 1017.19 1016.83 1016.63 1016.51 1016.37 1016.19 1015.99 1015.73 1015.47 1015.23 1015.01 1014.81 1014.61 1014.41 1014.25 1014.13 1014.05 1013.95 1013.83 1013.67 1013.53 1013.39 1013.25 1013.13 1013.05 1013.03 1013.05 1013.09 1013.09 1013.07 1013.01 1012.95 1012.93 1013.05
1030.83 1030.71 1030.55 1030.41 1030.29 1030.17 1030.05 1029.81 1029.65 1029.47 1029.29 1029.07 1028.85 1028.61 1028.31 1028.01 1027.73 1027.45 1027.13 1026.83 1026.49 1026.09 1025.43 1024.85 1023.83 1023.29 1023.05 1022.39 1022.27 1021.95 1021.61 1021.19 1020.51 1020.09 1019.75 1019.23 1018.71 1018.19 1017.59 1017.19 1016.95 1016.63 1016.35 1016.07 1015.81 1015.65 1015.53 1015.31 1014.99 1014.73 1014.51 1014.31 1014.13 1013.93 1013.79 1013.69 1013.61 1013.53 1013.41 1013.31 1013.21 1013.09 1012.95 1012.81 1012.67 1012.63 1012.63 1012.65 1012.71 1012.75 1012.75 1012.71 1012.69 1012.63
1030.73 1030.63 1030.51 1030.37 1030.25 1030.13 1029.97 1029.85 1029.65 1029.43 1029.27 1029.01 1028.75 1028.53 1028.29 1028.03 1027.81 1027.51 1027.19 1026.93 1026.63 1026.23 1025.73 1025.09 1024.61 1023.89 1023.33 1023.21 1022.53 1022.07 1022.01 1021.69 1021.29 1020.49 1019.57 1019.03 1018.67 1018.39 1018.15 1017.43 1016.89 1016.69 1016.29 1016.01 1015.81 1015.53 1015.33 1015.13 1014.83 1014.53 1014.25 1013.95 1013.67 1013.45 1013.31 1013.21 1013.11 1013.03 1012.99 1012.97 1012.89 1012.75 1012.59 1012.47 1012.37 1012.27 1012.23 1012.23 1012.27 1012.33 1012.39 1012.43 1012.41 1012.43
1030.67 1030.55 1030.39 1030.23 1030.13 1030.01 1029.89 1029.83 1029.75 1029.67 1029.43 1029.11 1028.89 1028.59 1028.37 1028.11 1027.91 1027.67 1027.37 1027.15 1026.89 1026.59 1026.11 1025.55 1024.89 1024.31 1023.75 1023.17 1022.91 1022.47 1022.07 1021.57 1021.07 1020.79 1020.45 1020.03 1019.45 1018.95 1018.37 1017.85 1017.17 1016.51 1016.29 1015.73 1015.37 1015.19 1014.81 1014.49 1014.17 1013.89 1013.59 1013.35 1013.09 1012.89 1012.77 1012.67 1012.57 1012.53 1012.57 1012.61 1012.53 1012.37 1012.23 1012.11 1012.01 1011.91 1011.83 1011.79 1011.81 1011.85 1011.95 1012.03 1012.11 1012.17
1030.57 1030.41 1030.21 1030.07 1029.95 1029.95 1030.01 1029.99 1029.89 1029.73 1029.59 1029.39 1029.09 1028.77 1028.61 1028.43 1028.25 1028.01 1027.75 1027.53 1027.33 1026.97 1026.51 1025.93 1025.41 1024.85 1024.25 1023.79 1023.35 1022.89 1022.57 1022.15 1021.59 1021.15 1020.97 1020.27 1019.59 1019.01 1018.57 1018.05 1017.83 1017.43 1016.71 1016.01 1015.45 1014.99 1014.63 1014.17 1013.73 1013.47 1013.17 1012.81 1012.63 1012.39 1012.35 1012.19 1012.11 1012.09 1012.09 1012.11 1012.07 1011.95 1011.85 1011.71 1011.63 1011.51 1011.41 1011.35 1011.35 1011.39 1011.47 1011.57 1011.67 1011.81
1030.43 1030.23 1030.11 1029.95 1029.97 1029.97 1029.89 1029.81 1029.65 1029.51 1029.37 1029.27 1029.11 1028.83 1028.67 1028.51 1028.35 1028.19 1028.03 1027.77 1027.47 1027.11 1026.65 1026.13 1025.63 1025.13 1024.61 1024.09 1023.69 1023.27 1022.75 1022.29 1021.73 1021.37 1020.99 1020.41 1019.69 1019.55 1019.17 1018.23 1017.87 1017.65 1017.33 1016.71 1015.79 1015.15 1015.05 1014.79 1014.19 1013.73 1013.17 1012.73 1012.59 1012.29 1012.05 1011.77 1011.69 1011.65 1011.67 1011.63 1011.59 1011.55 1011.45 1011.33 1011.19 1011.05 1010.99 1010.93 1010.87 1010.87 1010.95 1011.05 1011.19 1011.31
1030.35 1030.15 1030.05 1029.89 1029.79 1029.75 1029.61 1029.43 1029.37 1029.25 1029.07 1028.97 1028.83 1028.67 1028.55 1028.45 1028.35 1028.19 1027.99 1027.71 1027.39 1027.05 1026.59 1026.07 1025.77 1025.41 1024.87 1024.39 1024.01 1023.57 1022.97 1022.41 1022.03 1021.49 1021.03 1020.53 1020.07 1019.85 1019.39 1018.47 1017.61 1017.99 1017.49 1016.91 1016.39 1015.27 1015.05 1015.05 1014.41 1013.87 1013.47 1013.05 1012.63 1012.23 1011.83 1011.69 1011.55 1011.53 1011.49 1011.37 1011.29 1011.17 1011.07 1010.91 1010.75 1010.61 1010.53 1010.47 1010.39 1010.37 1010.41 1010.49 1010.63 1010.77
1030.29 1030.17 1030.05 1029.85 1029.69 1029.55 1029.43 1029.35 1029.13 1028.93 1028.79 1028.65 1028.49 1028.39 1028.29 1028.19 1028.05 1027.91 1027.77 1027.51 1027.19 1026.87 1026.47 1025.97 1025.61 1025.27 1024.75 1024.21 1023.83 1023.27 1022.75 1022.13 1021.63 1021.35 1020.97 1020.55 1020.19 1019.75 1019.37 1018.83 1018.33 1017.81 1018.01 1017.43 1016.55 1015.39 1014.77 1015.07 1014.45 1013.61 1013.19 1012.97 1012.65 1012.27 1011.83 1011.53 1011.37 1011.23 1011.07 1010.93 1010.79 1010.65 1010.53 1010.41 1010.31 1010.21 1010.07 1009.99 1009.95 1009.91 1009.93 1009.97 1010.05 1010.19
1030.33 1030.17 1030.01 1029.79 1029.57 1029.33 1029.29 1029.13 1028.81 1028.59 1028.41 1028.27 1028.15 1028.07 1027.99 1027.85 1027.73 1027.57 1027.29 1027.05 1026.73 1026.33 1025.97 1025.51 1024.99 1024.81 1024.25 1023.85 1023.43 1022.99 1022.47 1021.99 1021.61 1021.19 1020.77 1020.25 1019.79 1019.37 1019.05 1018.61 1018.15 1017.79 1018.05 1017.51 1016.49 1015.51 1014.29 1014.87 1014.25 1013.35 1012.85 1012.77 1012.43 1012.05 1011.77 1011.33 1011.05 1010.77 1010.51 1010.35 1010.17 1010.05 1009.99 1009.91 1009.85 1009.77 1009.67 1009.57 1009.51 1009.45 1009.43 1009.41 1009.51 1009.65
1030.35 1030.15 1029.99 1029.71 1029.39 1029.11 1028.95 1028.75 1028.55 1028.33 1028.11 1027.95 1027.85 1027.75 1027.65 1027.47 1027.17 1026.87 1026.55 1026.19 1025.77 1025.49 1025.09 1024.67 1024.25 1023.77 1023.75 1023.21 1022.79 1022.43 1022.15 1021.79 1021.39 1020.97 1020.43 1020.09 1019.61 1019.25 1018.85 1018.39 1018.05 1017.65 1017.83 1017.47 1016.41 1014.85 1013.79 1014.71 1014.11 1013.01 1012.49 1012.49 1012.15 1011.75 1011.39 1011.07 1010.71 1010.43 1010.11 1009.89 1009.73 1009.63 1009.53 1009.45 1009.39 1009.33 1009.25 1009.19 1009.07 1009.01 1008.95 1008.93 1008.99 1009.09
1030.37 1030.15 1029.87 1029.57 1029.27 1028.97 1028.75 1028.49 1028.39 1028.17 1027.89 1027.63 1027.39 1027.23 1027.01 1026.73 1026.41 1026.13 1025.89 1025.49 1025.01 1024.57 1024.21 1023.79 1023.35 1023.05 1022.91 1022.61 1022.23 1021.87 1021.55 1021.19 1020.79 1020.45 1020.03 1019.71 1019.29 1018.75 1018.27 1017.81 1017.61 1017.21 1017.13 1016.77 1016.31 1014.97 1013.25 1014.31 1013.83 1012.67 1012.37 1012.19 1011.87 1011.39 1010.91 1010.63 1010.31 1010.03 1009.83 1009.55 1009.33 1009.17 1009.05 1009.01 1008.95 1008.85 1008.79 1008.71 1008.61 1008.53 1008.49 1008.45 1008.45 1008.53
1030.07 1029.85 1029.69 1029.41 1029.05 1028.79 1028.45 1028.11 1027.95 1027.73 1027.41 1027.05 1026.79 1026.49 1026.11 1025.79 1025.51 1025.27 1024.99 1024.55 1024.21 1023.87 1023.51 1023.11 1022.69 1022.31 1022.09 1021.81 1021.49 1021.29 1021.03 1020.69 1020.35 1020.09 1019.51 1019.11 1018.75 1018.23 1017.55 1017.17 1016.91 1016.79 1016.45 1016.41 1015.93 1014.97 1013.79 1014.19 1013.79 1012.39 1012.25 1012.13 1011.59 1011.01 1010.61 1010.21 1010.01 1009.77 1009.43 1009.21 1008.99 1008.77 1008.61 1008.51 1008.45 1008.37 1008.27 1008.19 1008.13 1008.05 1007.99 1007.95 1007.95 1007.99
1029.71 1029.55 1029.37 1029.15 1028.79 1028.37 1027.97 1027.67 1027.45 1027.17 1026.87 1026.41 1026.05 1025.67 1025.29 1024.89 1024.57 1024.11 1023.79 1023.45 1023.17 1022.83 1022.37 1022.01 1021.59 1021.27 1021.01 1020.77 1020.45 1020.15 1019.89 1019.67 1019.47 1019.17 1018.89 1018.59 1018.39 1017.85 1017.45 1016.79 1016.85 1016.25 1016.15 1015.71 1015.61 1014.93 1013.87 1013.93 1013.69 1012.37 1011.99 1011.97 1011.31 1010.69 1010.39 1010.09 1009.71 1009.33 1008.99 1008.71 1008.49 1008.27 1008.05 1007.93 1007.87 1007.81 1007.71 1007.65 1007.59 1007.53 1007.49 1007.47 1007.47 1007.55
1029.33 1029.11 1028.95 1028.69 1028.31 1027.93 1027.55 1027.27 1026.85 1026.41 1026.05 1025.69 1025.37 1024.97 1024.43 1023.97 1023.63 1023.13 1022.81 1022.47 1022.01 1021.73 1021.39 1021.05 1020.79 1020.59 1020.41 1020.07 1019.83 1019.49 1019.19 1018.99 1018.95 1018.91 1018.47 1018.17 1018.17 1017.63 1017.47 1016.77 1016.49 1015.81 1015.61 1015.25 1015.35 1014.67 1013.87 1013.81 1013.37 1012.47 1011.41 1011.43 1010.91 1010.31 1009.79 1009.51 1009.15 1008.83 1008.47 1008.19 1007.93 1007.75 1007.65 1007.49 1007.35 1007.25 1007.19 1007.13 1007.09 1007.05 1007.03 1007.01 1007.09 1007.13
1028.97 1028.59 1028.25 1027.97 1027.73 1027.41 1027.01 1026.59 1026.15 1025.75 1025.49 1025.11 1024.69 1024.23 1023.71 1023.13 1022.71 1022.35 1022.11 1021.65 1021.23 1020.95 1020.75 1020.43 1020.21 1019.89 1019.75 1019.49 1019.25 1018.93 1018.77 1018.59 1018.47 1018.27 1017.91 1017.79 1017.81 1017.39 1017.07 1016.69 1016.23 1015.67 1014.83 1014.89 1014.89 1014.43 1013.45 1013.75 1012.91 1013.03 1011.83 1011.09 1010.29 1010.21 1009.51 1009.35 1009.13 1008.83 1008.33 1007.85 1007.49 1007.29 1007.13 1007.05 1006.93 1006.75 1006.65 1006.61 1006.55 1006.55 1006.53 1006.49 1006.67 1006.63
1028.29 1028.01 1027.71 1027.43 1027.15 1026.75 1026.35 1025.97 1025.65 1025.27 1024.81 1024.35 1023.83 1023.51 1023.09 1022.67 1022.07 1021.75 1021.43 1021.25 1021.01 1020.53 1020.35 1019.95 1019.81 1019.51 1019.27 1019.01 1018.77 1018.49 1018.25 1018.07 1017.95 1017.73 1017.53 1017.45 1017.35 1017.07 1016.65 1016.37 1016.15 1015.51 1014.49 1014.47 1014.87 1014.59 1013.75 1013.91 1013.23 1013.35 1012.93 1012.33 1010.51 1009.83 1009.71 1009.47 1009.41 1008.89 1008.69 1008.27 1007.79 1007.21 1006.89 1006.59 1006.41 1006.27 1006.13 1006.03 1005.99 1005.99 1005.95 1005.95 1006.13 1006.13
1027.81 1027.55 1027.25 1026.91 1026.61 1026.33 1025.97 1025.55 1025.07 1024.57 1024.15 1023.79 1023.47 1023.13 1022.75 1022.27 1021.71 1021.35 1021.01 1020.63 1020.47 1020.09 1019.81 1019.63 1019.39 1019.19 1018.97 1018.69 1018.47 1018.13 1017.79 1017.47 1017.29 1017.17 1017.03 1016.95 1016.83 1016.65 1016.39 1016.11 1015.71 1014.95 1014.13 1014.19 1014.51 1014.51 1013.79 1013.69 1013.29 1013.15 1012.69 1012.39 1011.13 1010.47 1009.55 1009.55 1008.99 1008.77 1008.41 1008.17 1007.69 1007.27 1006.93 1006.47 1006.11 1005.69 1005.51 1005.35 1005.31 1005.33 1005.33 1005.37 1005.45 1005.57
1027.51 1027.21 1026.83 1026.53 1026.27 1025.97 1025.51 1024.95 1024.49 1024.17 1023.89 1023.59 1023.39 1023.01 1022.63 1022.11 1021.73 1021.39 1021.05 1020.67 1020.51 1020.39 1020.13 1019.83 1019.53 1019.29 1019.03 1018.69 1018.37 1018.05 1017.67 1017.33 1017.03 1016.83 1016.65 1016.53 1016.39 1016.17 1015.91 1015.71 1015.41 1014.79 1013.77 1013.87 1014.27 1014.23 1013.93 1013.25 1013.45 1013.07 1012.39 1012.13 1010.77 1011.09 1009.69 1008.83 1009.05 1008.81 1008.53 1008.15 1007.83 1007.23 1006.93 1006.41 1006.01 1005.51 1005.17 1004.95 1004.73 1004.61 1004.59 1004.69 1004.81 1004.89
1027.05 1026.75 1026.51 1026.23 1025.95 1025.57 1025.17 1024.89 1024.59 1024.29 1024.01 1023.81 1023.55 1023.05 1022.59 1022.25 1021.87 1021.61 1021.43 1021.21 1020.91 1020.59 1020.33 1020.09 1019.75 1019.37 1019.03 1018.59 1018.17 1017.83 1017.43 1017.05 1016.81 1016.57 1016.37 1016.17 1016.03 1015.81 1015.55 1015.25 1014.87 1014.21 1013.53 1013.63 1013.97 1014.07 1013.91 1013.15 1013.25 1013.15 1012.35 1012.05 1011.33 1010.33 1010.37 1009.29 1008.61 1008.83 1008.29 1007.87 1007.61 1007.23 1006.81 1006.35 1005.75 1005.25 1004.81 1004.53 1004.33 1004.25 1004.17 1004.09 1004.13 1004.25
1026.67 1026.45 1026.29 1026.09 1025.81 1025.59 1025.31 1025.01 1024.71 1024.47 1024.29 1024.01 1023.55 1023.17 1022.79 1022.47 1022.31 1022.15 1021.79 1021.49 1021.25 1021.05 1020.77 1020.43 1019.97 1019.57 1019.13 1018.75 1018.33 1017.89 1017.41 1016.97 1016.65 1016.41 1016.17 1015.91 1015.71 1015.45 1015.05 1014.65 1014.25 1013.85 1013.45 1013.27 1013.37 1013.47 1013.29 1012.87 1012.51 1012.55 1012.29 1011.91 1011.47 1010.69 1010.01 1009.35 1009.09 1008.73 1008.45 1007.65 1007.41 1006.97 1006.71 1006.37 1005.73 1005.11 1004.59 1004.23 1004.07 1003.91 1003.81 1003.65 1003.61 1003.71
1026.57 1026.47 1026.29 1026.13 1025.99 1025.79 1025.51 1025.21 1024.97 1024.71 1024.47 1024.17 1023.77 1023.35 1023.03 1022.91 1022.79 1022.55 1022.29 1021.97 1021.65 1021.25 1020.79 1020.31 1019.85 1019.43 1018.97 1018.53 1018.07 1017.69 1017.29 1016.89 1016.55 1016.17 1015.73 1015.47 1015.19 1014.89 1014.47 1013.93 1013.45 1013.05 1012.83 1012.53 1012.47 1012.45 1012.49 1012.25 1011.87 1011.65 1011.47 1011.19 1011.03 1010.11 1010.25 1009.29 1009.17 1008.55 1008.31 1007.87 1007.19 1006.83 1006.73 1006.17 1005.45 1004.95 1004.37 1003.99 1003.69 1003.61 1003.43 1003.35 1003.25 1003.27
1026.65 1026.59 1026.49 1026.43 1026.27 1026.05 1025.85 1025.59 1025.33 1025.03 1024.69 1024.27 1023.87 1023.59 1023.45 1023.39 1023.23 1023.05 1022.77 1022.41 1022.05 1021.61 1021.09 1020.61 1020.09 1019.45 1018.87 1018.45 1018.03 1017.69 1017.29 1016.85 1016.31 1015.81 1015.33 1014.97 1014.49 1014.15 1013.61 1013.13 1012.53 1012.35 1012.05 1011.79 1011.69 1011.63 1011.57 1011.39 1011.15 1010.97 1010.71 1010.41 1010.43 1009.91 1009.49 1009.37 1008.53 1008.19 1007.97 1007.71 1006.83 1006.51 1006.15 1005.95 1005.45 1004.75 1004.19 1003.73 1003.43 1003.23 1003.09 1003.03 1002.89 1002.93
1026.81 1026.89 1026.89 1026.69 1026.45 1026.31 1026.03 1025.73 1025.43 1025.11 1024.75 1024.43 1024.11 1023.91 1023.83 1023.73 1023.57 1023.27 1023.03 1022.73 1022.39 1021.91 1021.39 1020.77 1020.19 1019.61 1019.03 1018.45 1017.93 1017.37 1016.89 1016.43 1015.93 1015.53 1015.07 1014.63 1014.07 1013.69 1013.09 1012.57 1011.81 1011.57 1011.23 1011.11 1010.93 1010.73 1010.67 1010.61 1010.47 1010.37 1010.13 1009.69 1009.63 1009.39 1008.89 1008.81 1008.09 1007.57 1007.45 1007.29 1007.09 1006.59 1005.59 1005.51 1004.95 1004.47 1004.01 1003.47 1003.05 1002.79 1002.71 1002.61 1002.49 1002.49
1027.15 1027.13 1026.93 1026.79 1026.55 1026.25 1025.95 1025.59 1025.31 1025.03 1024.77 1024.51 1024.27 1024.17 1024.11 1023.87 1023.55 1023.25 1022.91 1022.57 1022.21 1021.75 1021.31 1020.83 1020.27 1019.65 1019.07 1018.53 1017.99 1017.49 1017.03 1016.51 1015.95 1015.47 1014.97 1014.47 1013.85 1013.41 1012.91 1012.31 1011.53 1011.17 1010.71 1010.43 1010.09 1009.89 1009.87 1009.73 1009.61 1009.41 1009.23 1008.99 1008.85 1008.37 1008.25 1007.97 1007.41 1006.97 1006.75 1006.49 1006.27 1005.71 1005.39 1005.25 1004.87 1004.23 1003.71 1003.23 1002.81 1002.43 1002.25 1002.15 1002.05 1002.03
1027.13 1027.05 1026.91 1026.69 1026.45 1026.19 1025.97 1025.63 1025.33 1024.99 1024.63 1024.37 1024.29 1024.27 1024.03 1023.69 1023.39 1023.09 1022.79 1022.47 1022.07 1021.61 1021.23 1020.79 1020.29 1019.73 1019.17 1018.57 1018.01 1017.45 1016.89 1016.29 1015.73 1015.17 1014.65 1014.09 1013.63 1012.87 1012.47 1011.75 1011.05 1010.79 1010.41 1009.75 1009.39 1009.07 1008.97 1008.79 1008.65 1008.51 1008.27 1008.03 1007.89 1007.73 1007.73 1007.37 1006.59 1006.37 1006.17 1005.61 1005.39 1004.87 1004.57 1004.41 1004.15 1003.81 1003.57 1003.13 1002.65 1002.23 1001.91 1001.73 1001.63 1001.61
1027.19 1027.09 1027.03 1026.67 1026.51 1026.27 1025.99 1025.71 1025.41 1025.09 1024.83 1024.61 1024.31 1024.01 1023.85 1023.63 1023.37 1023.01 1022.65 1022.29 1021.83 1021.45 1021.09 1020.57 1020.05 1019.51 1018.99 1018.45 1017.85 1017.27 1016.69 1016.01 1015.49 1014.93 1014.49 1013.83 1013.41 1012.85 1012.13 1011.43 1010.65 1010.27 1010.03 1009.53 1009.09 1008.67 1008.23 1007.95 1007.73 1007.43 1007.21 1006.95 1006.69 1006.67 1006.65 1006.53 1005.79 1005.55 1005.33 1004.93 1004.45 1003.99 1003.61 1003.63 1003.41 1003.25 1002.99 1002.57 1002.27 1001.93 1001.61 1001.39 1001.25 1001.23
1027.03 1027.09 1026.91 1026.59 1026.45 1026.29 1026.05 1025.69 1025.49 1025.39 1025.19 1024.95 1024.77 1024.29 1023.87 1023.55 1023.23 1022.85 1022.49 1022.03 1021.67 1021.31 1020.85 1020.27 1019.73 1019.17 1018.69 1018.15 1017.59 1017.07 1016.47 1015.89 1015.23 1014.73 1014.29 1013.85 1013.25 1012.63 1011.89 1011.17 1010.43 1009.93 1009.53 1009.05 1008.61 1008.17 1007.81 1007.29 1006.97 1006.67 1006.31 1006.11 1005.89 1005.23 1005.13 1005.11 1005.01 1004.49 1004.41 1004.05 1003.63 1003.27 1002.87 1002.65 1002.47 1002.31 1002.27 1002.09 1001.93 1001.59 1001.21 1000.99 1000.85 1000.73
1026.87 1026.97 1026.91 1026.63 1026.43 1026.23 1026.03 1025.83 1025.61 1025.49 1025.45 1025.21 1025.03 1024.63 1024.11 1023.53 1023.11 1022.77 1022.31 1021.89 1021.65 1021.15 1020.57 1019.95 1019.39 1018.87 1018.35 1017.83 1017.35 1016.87 1016.33 1015.79 1015.27 1014.77 1014.29 1013.85 1013.25 1012.53 1011.83 1011.09 1010.35 1009.63 1009.13 1008.61 1008.09 1007.65 1007.33 1006.85 1006.45 1006.21 1005.91 1005.41 1005.27 1004.69 1003.63 1003.07 1003.45 1003.39 1003.49 1002.99 1002.75 1002.49 1002.11 1001.99 1001.79 1001.67 1001.57 1001.41 1001.23 1001.13 1000.93 1000.61 1000.39 1000.33
1026.97 1026.87 1026.77 1026.61 1026.37 1026.21 1026.05 1025.89 1025.71 1025.57 1025.51 1025.27 1024.99 1024.71 1024.33 1023.75 1023.07 1022.61 1022.17 1021.83 1021.45 1020.83 1020.21 1019.67 1019.13 1018.59 1018.09 1017.67 1017.21 1016.69 1016.17 1015.67 1015.19 1014.67 1014.19 1013.65 1013.15 1012.47 1011.71 1010.77 1010.07 1009.35 1008.75 1008.09 1007.61 1007.03 1006.65 1006.17 1005.75 1005.51 1005.25 1004.83 1004.51 1003.97 1002.63 1001.71 1001.93 1002.01 1002.35 1002.13 1001.85 1001.57 1001.31 1001.19 1001.09 1000.99 1000.81 1000.69 1000.57 1000.47 1000.29 1000.15 999.91 999.89
1027.05 1026.79 1026.75 1026.53 1026.41 1026.25 1026.09 1025.93 1025.71 1025.53 1025.35 1025.17 1024.95 1024.59 1024.15 1023.61 1023.05 1022.53 1022.01 1021.51 1020.93 1020.43 1019.91 1019.35 1018.77 1018.33 1017.91 1017.51 1017.11 1016.55 1015.99 1015.49 1015.05 1014.57 1014.07 1013.55 1012.93 1012.25 1011.63 1010.91 1010.11 1009.41 1008.57 1007.65 1007.01 1006.43 1005.97 1005.55 1005.05 1004.61 1004.39 1003.99 1003.53 1003.01 1002.29 1001.11 1001.13 1000.79 1000.85 1001.15 1001.15 1000.85 1000.73 1000.55 1000.31 1000.23 1000.13 1000.03 1000.01 999.83 999.85 999.79 999.55 999.51
1026.95 1026.83 1026.65 1026.49 1026.29 1026.21 1026.05 1025.85 1025.71 1025.47 1025.29 1025.07 1024.81 1024.47 1023.97 1023.47 1022.91 1022.35 1021.83 1021.31 1020.75 1020.11 1019.47 1018.99 1018.57 1018.13 1017.73 1017.31 1016.91 1016.45 1015.93 1015.41 1014.91 1014.39 1013.85 1013.27 1012.79 1012.21 1011.55 1010.89 1010.09 1009.21 1008.57 1007.73 1006.95 1006.13 1005.47 1004.95 1004.43 1004.03 1003.71 1003.37 1002.97 1002.33 1001.83 1001.37 1000.63 999.99 999.81 999.85 1000.09 1000.27 1000.07 999.79 999.55 999.49 999.55 999.55 999.45 999.41 999.41 999.41 999.65 999.71
1026.71 1026.69 1026.53 1026.37 1026.19 1026.05 1025.95 1025.77 1025.55 1025.29 1025.11 1024.87 1024.59 1024.27 1023.93 1023.35 1022.73 1022.25 1021.71 1021.07 1020.33 1019.75 1019.39 1018.93 1018.45 1017.93 1017.49 1017.09 1016.67 1016.21 1015.73 1015.27 1014.79 1014.25 1013.73 1013.15 1012.53 1011.99 1011.39 1010.75 1010.11 1009.31 1008.55 1007.67 1006.75 1005.73 1005.03 1004.39 1003.97 1003.51 1003.09 1002.73 1002.49 1002.21 1001.89 1001.43 1000.73 1000.19 999.81 999.45 999.39 999.45 999.33 999.45 999.37 999.29 999.23 999.13 999.11 999.25 999.45 999.57 999.59 999.65
1026.55 1026.49 1026.31 1026.17 1026.07 1025.95 1025.85 1025.63 1025.43 1025.19 1024.93 1024.63 1024.39 1024.03 1023.63 1023.17 1022.69 1022.11 1021.49 1020.81 1020.23 1019.73 1019.17 1018.63 1018.15 1017.73 1017.29 1016.85 1016.45 1016.09 1015.61 1015.05 1014.55 1013.97 1013.41 1012.85 1012.27 1011.67 1011.09 1010.55 1009.87 1009.21 1008.49 1007.45 1006.61 1005.69 1004.77 1004.05 1003.59 1003.23 1002.95 1002.53 1002.15 1001.89 1001.53 1001.05 1000.41 999.57 999.43 999.31 999.23 999.25 999.33 999.45 999.39 999.29 999.13 999.01 999.09 999.17 999.23 999.35 999.53 999.83
1026.39 1026.33 1026.13 1026.07 1025.99 1025.85 1025.69 1025.51 1025.29 1025.05 1024.73 1024.43 1024.13 1023.75 1023.33 1022.89 1022.39 1021.79 1021.15 1020.53 1020.09 1019.61 1019.09 1018.51 1017.99 1017.53 1017.05 1016.61 1016.21 1015.81 1015.45 1014.91 1014.31 1013.71 1013.13 1012.57 1011.93 1011.29 1010.75 1010.27 1009.69 1008.89 1008.33 1007.45 1006.55 1005.55 1004.51 1003.97 1003.41 1002.89 1002.47 1002.23 1001.95 1001.73 1001.11 1000.29 999.61 999.37 999.71 999.75 999.67 999.49 999.45 999.49 999.65 999.69 999.61 999.37 999.35 999.49 999.71 999.87 999.83 1000.01
1026.17 1026.05 1025.95 1025.83 1025.83 1025.71 1025.53 1025.29 1025.07 1024.83 1024.49 1024.21 1023.95 1023.65 1023.29 1022.73 1022.11 1021.51 1020.89 1020.29 1019.83 1019.41 1018.91 1018.45 1017.97 1017.47 1016.95 1016.47 1016.05 1015.67 1015.23 1014.67 1014.11 1013.57 1012.99 1012.39 1011.83 1011.25 1010.59 1009.95 1009.37 1008.71 1008.05 1007.17 1006.21 1005.33 1004.43 1003.61 1002.95 1002.55 1002.29 1002.01 1001.61 1001.31 1000.85 1000.05 999.47 999.43 999.85 999.73 999.71 999.69 999.71 999.71 999.67 999.73 999.75 999.73 999.69 999.57 999.49 999.59 999.83 1000.15
1025.77 1025.77 1025.65 1025.57 1025.55 1025.43 1025.31 1025.07 1024.81 1024.55 1024.33 1024.07 1023.75 1023.47 1023.09 1022.61 1022.03 1021.39 1020.77 1020.21 1019.73 1019.29 1018.85 1018.43 1017.91 1017.39 1016.85 1016.33 1015.87 1015.41 1014.97 1014.49 1013.95 1013.45 1012.89 1012.33 1011.69 1011.05 1010.37 1009.67 1009.01 1008.35 1007.65 1006.87 1005.95 1005.07 1004.33 1003.61 1002.93 1002.59 1002.35 1001.87 1001.39 1001.07 1000.69 1000.29 999.67 999.37 999.45 999.75 1000.01 1000.01 1000.09 1000.29 1000.33 1000.11 1000.03 1000.19 1000.21 1000.05 999.91 999.93 999.97 999.87
1025.47 1025.45 1025.41 1025.33 1025.27 1025.17 1024.97 1024.73 1024.47 1024.21 1024.05 1023.89 1023.65 1023.31 1022.93 1022.51 1021.91 1021.25 1020.67 1020.13 1019.61 1019.19 1018.83 1018.41 1017.89 1017.29 1016.71 1016.19 1015.75 1015.29 1014.75 1014.25 1013.79 1013.27 1012.75 1012.13 1011.49 1010.81 1010.15 1009.47 1008.75 1008.03 1007.37 1006.65 1005.95 1005.05 1004.37 1003.75 1003.11 1002.61 1002.23 1001.81 1001.69 1001.59 1001.27 1001.07 1000.57 1000.09 1000.05 1000.21 1000.33 1000.33 1000.41 1000.55 1000.63 1000.79 1000.87 1000.93 1000.85 1000.61 1000.37 1000.25 1000.21 1000.21
Wind_Speed
3 3 3 4 4 4 4 4 4 4 4 4 5 5 6 7 9 11 13 10 11 8 8 9 8 6 7 7 7 9 10 11 11 11 11 11 11 12 15 18 20 20 20 20 20 20 21 22 22 22 22 23 22 22 22 21 22 22 22 23 23 22 23 23 23 24 26 21 21 20 17 14 12 12
4 4 4 4 4 4 4 5 5 5 5 5 5 5 6 5 7 9 11 14 9 10 9 8 11 10 10 10 11 10 10 10 10 12 12 12 12 14 16 18 20 21 22 21 19 20 21 22 22 23 23 23 23 23 23 22 22 23 23 24 24 23 22 22 23 22 22 24 22 22 21 19 17 16
4 5 5 4 4 4 5 5 5 5 5 5 5 6 6 6 7 8 9 13 11 6 10 12 10 12 14 11 12 10 10 11 11 12 12 13 14 14 15 17 18 19 20 20 21 21 22 22 23 24 24 24 24 24 24 24 23 23 24 24 23 23 23 22 21 22 21 23 23 22 21 21 20 19
4 5 6 6 5 5 5 5 5 5 5 5 6 6 6 7 7 8 10 12 17 11 10 13 13 11 13 13 12 14 11 10 12 11 11 12 14 13 12 14 15 18 20 21 21 22 22 22 23 24 24 25 25 25 25 24 24 24 24 24 24 23 23 22 21 21 19 18 20 21 21 21 20 20
5 6 6 7 6 6 6 6 6 6 6 7 6 6 7 7 7 8 9 12 16 14 10 11 12 11 10 13 11 13 13 13 11 12 12 13 12 12 12 12 15 16 19 20 20 21 22 23 23 23 23 24 24 24 25 24 24 24 23 23 23 24 24 23 22 21 19 19 19 20 21 20 20 20
5 6 7 7 7 6 6 7 7 7 7 7 7 7 7 8 8 7 9 11 12 17 14 12 11 12 8 13 10 10 12 16 13 14 13 12 12 12 12 12 12 16 17 20 21 22 22 23 24 24 23 23 23 24 24 24 23 24 24 23 23 23 23 23 23 22 19 20 21 19 20 20 21 20
6 7 6 7 6 5 7 7 7 7 7 7 8 9 8 9 10 9 9 10 13 15 16 14 15 12 10 9 12 12 10 13 15 15 14 13 11 11 12 12 12 15 18 20 21 21 22 23 24 24 24 24 23 23 24 24 23 23 24 23 23 22 21 23 24 23 22 21 22 22 18 17 18 18
6 7 7 7 7 7 8 7 7 7 7 7 8 9 9 9 10 10 10 11 11 13 15 15 13 13 13 11 12 11 11 12 14 13 13 14 13 13 12 12 12 13 18 19 21 23 23 24 24 24 24 24 24 24 24 23 23 23 23 23 23 23 23 21 22 21 21 22 23 23 23 21 19 19
7 7 7 8 7 7 8 8 7 7 9 9 9 9 9 9 9 9 9 10 11 13 15 16 14 14 14 12 12 12 13 13 13 13 13 13 14 15 14 12 12 16 19 21 23 23 24 23 23 24 24 24 24 24 23 23 23 22 22 22 22 23 23 22 21 21 21 20 21 21 21 23 25 22
6 6 7 7 7 7 8 8 8 8 10 9 9 10 10 10 10 11 11 11 12 13 14 15 17 14 14 14 12 12 13 13 14 14 14 14 13 13 13 12 10 10 9 9 10 13 16 19 21 21 21 22 23 24 24 23 23 22 20 20 20 21 22 23 22 22 21 21 21 21 23 23 22 23
6 7 7 7 7 8 8 8 8 9 10 9 11 10 11 11 10 11 10 11 12 12 13 14 14 15 13 12 14 12 13 14 13 15 14 13 11 12 13 15 13 12 13 14 16 16 17 20 19 21 24 25 25 26 25 24 24 22 20 20 20 21 23 23 23 22 22 22 22 22 22 22 23 24
7 7 7 7 7 7 7 7 9 10 10 10 11 10 10 11 11 11 10 10 11 11 12 13 13 12 14 13 12 12 13 13 12 10 12 15 15 15 14 14 15 14 13 14 13 12 15 15 17 21 23 25 27 27 25 25 23 22 21 22 23 23 23 23 23 23 23 22 22 23 22 22 23 25
7 7 7 7 7 7 11 15 14 14 14 12 12 11 10 11 11 11 10 10 10 10 11 12 11 12 13 12 12 12 11 12 14 13 13 15 14 13 13 14 13 13 15 14 14 12 12 13 13 12 12 12 15 16 16 16 18 18 20 20 21 21 23 23 24 24 23 23 23 23 23 23 22 23
8 8 7 8 11 12 13 14 15 15 15 16 13 12 11 11 11 11 11 11 10 11 12 12 12 12 12 12 12 13 13 14 14 14 13 15 14 14 15 15 12 11 13 15 16 14 12 13 13 13 13 12 12 11 11 11 11 12 13 15 17 19 21 22 24 24 24 24 24 23 23 23 23 23
8 8 8 8 9 10 11 10 13 15 17 16 17 17 17 15 13 12 12 11 11 11 12 12 12 12 14 14 13 13 13 13 14 14 13 14 14 14 14 16 13 7 10 13 14 16 13 12 15 14 14 14 13 13 12 15 16 16 17 19 20 20 21 21 22 23 24 24 24 24 24 24 24 24
8 8 8 8 7 7 8 10 11 13 14 15 16 17 16 16 17 16 13 12 11 12 13 13 13 13 14 14 12 12 12 13 13 13 13 13 13 15 14 14 15 12 13 15 16 18 14 12 14 15 13 14 14 15 18 21 21 21 21 21 22 22 22 22 22 23 24 25 25 24 25 25 25 25
8 8 8 8 7 7 11 10 10 11 11 13 16 16 16 16 16 15 17 18 15 14 15 16 16 14 15 15 13 12 14 14 16 15 14 14 15 15 16 16 16 14 12 16 17 18 16 11 14 15 13 13 13 15 19 24 24 24 24 24 24 23 23 23 23 23 24 24 25 25 25 25 26 25
8 8 8 9 9 9 10 10 11 11 12 13 13 12 11 12 15 18 21 23 25 22 18 18 17 17 15 15 15 16 17 18 16 15 15 16 16 16 16 18 18 17 12 14 16 19 16 9 13 16 14 11 12 13 18 24 25 26 26 25 24 24 24 23 23 24 24 24 25 26 26 25 25 26
9 10 9 10 10 11 11 11 13 14 14 14 13 13 14 14 15 15 15 16 16 15 15 16 17 18 17 17 18 17 17 19 17 16 17 17 16 16 16 16 15 15 12 14 14 17 16 8 13 16 14 12 13 12 16 22 24 24 24 26 26 25 24 24 25 24 24 25 25 26 26 25 26 26
9 9 10 10 12 13 13 16 19 18 16 16 15 16 15 15 14 14 16 22 22 20 18 17 18 17 18 21 19 17 15 14 13 14 15 14 15 16 16 16 14 14 11 13 14 15 16 10 13 15 12 12 14 14 14 19 22 23 25 25 25 27 27 27 25 26 26 25 25 26 26 26 26 25
9 9 10 11 12 14 15 18 21 21 21 16 15 15 14 13 12 12 14 21 25 27 29 31 32 32 31 30 30 30 32 24 19 15 15 15 13 16 17 16 14 15 13 13 13 15 18 12 13 15 12 12 14 14 13 13 19 23 23 25 26 26 26 25 26 27 27 26 26 26 26 26 25 25
9 10 16 17 15 16 16 19 22 24 21 15 14 15 16 17 15 16 14 15 15 25 28 28 29 28 28 29 29 30 28 27 20 14 17 15 15 17 16 18 15 15 13 14 13 15 15 13 12 15 13 13 11 13 12 13 13 19 21 26 26 26 26 27 28 27 29 29 27 26 26 25 24 19
9 11 13 18 16 15 17 23 24 24 20 16 15 17 17 17 16 13 17 14 17 14 14 15 16 17 20 19 18 17 23 24 23 19 19 16 16 16 16 16 16 16 12 11 11 14 13 11 13 12 15 14 10 8 11 10 10 11 11 12 14 21 24 25 25 27 26 28 29 28 27 25 22 15
10 10 10 10 15 19 22 22 24 25 26 20 18 17 17 16 16 13 14 15 14 15 14 14 13 15 15 15 15 15 16 16 18 18 17 15 14 15 16 15 15 16 14 11 12 14 13 11 14 9 13 14 15 7 10 11 12 12 11 13 13 17 20 20 20 25 27 26 28 29 30 27 24 14
8 9 11 11 15 18 21 24 27 27 27 26 18 15 14 15 18 22 17 16 21 14 12 11 10 10 10 10 11 11 12 13 13 13 15 14 14 14 14 14 15 16 16 15 17 13 14 11 14 12 13 12 15 16 13 13 12 11 10 11 13 14 14 14 12 13 14 20 24 27 28 29 29 21
10 10 10 10 15 22 24 25 26 27 26 27 18 16 24 28 28 20 16 14 10 10 11 12 12 11 11 11 11 11 11 12 13 12 12 13 15 14 15 15 16 16 16 14 19 13 13 13 11 13 13 14 17 13 17 15 12 13 14 13 13 14 13 13 13 14 13 12 12 14 17 26 28 30
10 10 11 12 19 23 25 25 25 24 26 21 15 24 25 24 26 22 11 11 11 10 11 11 11 10 10 11 11 11 11 11 12 11 11 12 14 14 14 16 16 18 18 17 15 14 14 15 12 14 15 14 17 16 16 17 13 9 13 12 13 13 13 13 14 15 14 12 11 16 19 22 25 28
10 10 10 13 22 23 23 24 24 24 22 15 21 22 23 23 21 12 11 10 10 10 10 10 10 10 10 10 10 10 10 10 11 12 13 13 14 14 14 16 16 17 19 18 16 14 15 16 16 13 15 15 16 17 17 15 15 15 14 12 12 13 12 13 14 14 14 13 12 11 11 10 11 13
9 13 20 21 20 22 22 22 21 16 15 17 18 20 20 18 10 10 9 10 10 10 10 10 10 11 11 11 11 11 12 13 13 13 13 12 13 13 14 16 16 16 14 15 15 15 15 15 16 16 15 15 16 17 15 18 14 15 15 15 14 12 13 14 14 15 15 14 12 12 11 11 10 10
17 17 17 20 20 17 14 11 9 9 10 15 17 16 15 9 9 9 9 10 10 10 11 11 11 11 11 11 12 13 13 13 12 12 12 12 12 11 13 14 14 13 13 12 13 16 17 17 17 17 16 17 17 18 16 16 17 16 16 15 16 14 13 14 15 14 14 15 15 13 12 11 12 10
7 8 10 11 13 10 13 13 12 11 11 9 9 8 8 8 8 8 8 9 10 10 10 11 10 11 11 12 12 11 11 12 12 12 13 12 12 12 13 14 15 14 13 11 13 15 16 16 16 17 17 17 16 17 17 15 18 16 15 15 15 16 12 12 12 15 15 15 14 13 12 11 11 11
3 6 8 8 6 6 6 6 5 5 6 7 7 8 9 9 9 11 13 12 9 9 9 10 11 11 11 11 11 11 11 12 12 12 12 12 13 13 13 14 14 13 13 14 12 13 13 15 16 16 17 16 16 15 15 15 16 16 15 15 15 16 15 15 15 15 15 15 15 13 13 12 11 10
3 4 5 4 5 5 6 6 6 6 7 7 7 7 8 8 9 8 8 9 9 10 10 10 11 11 11 11 11 11 11 11 11 11 12 12 13 13 12 15 15 14 15 14 14 14 13 13 13 16 16 16 15 15 12 14 15 15 15 15 14 16 14 14 14 14 14 14 14 13 13 12 11 10
3 4 4 4 4 5 5 6 6 7 7 8 9 8 10 9 8 9 9 9 9 10 11 11 11 11 11 11 11 11 12 12 11 12 13 13 13 13 13 14 14 13 13 15 14 14 13 13 13 12 14 15 16 17 16 16 16 14 15 15 15 16 15 13 14 16 15 13 13 14 13 12 11 10
3 4 4 4 4 4 5 7 7 7 7 9 10 10 10 10 10 10 9 9 10 11 11 11 11 11 11 11 11 12 12 12 12 12 11 12 12 12 13 14 14 14 14 14 15 14 14 13 13 13 13 14 14 14 20 20 16 17 15 16 16 16 15 12 13 13 14 15 14 15 13 12 11 10
4 3 4 4 4 5 5 6 7 8 7 8 8 9 11 10 10 10 10 11 11 11 11 11 11 11 11 11 12 12 12 13 12 12 12 11 12 13 12 13 14 14 14 14 14 13 13 13 13 13 12 11 10 12 12 25 28 16 16 16 15 15 15 13 13 13 12 14 14 14 14 14 12 11
3 3 3 4 4 4 5 6 6 7 7 8 9 8 9 10 11 10 11 13 11 10 11 11 10 11 12 12 12 12 12 12 12 12 12 12 12 12 13 13 14 13 14 14 14 14 13 13 13 12 11 9 10 12 16 7 22 30 16 16 15 14 14 13 12 11 12 13 14 14 14 13 13 12
3 3 4 4 4 4 5 5 6 7 8 8 8 9 9 10 10 11 11 11 11 10 10 10 12 12 12 12 12 12 12 12 12 12 12 12 12 12 13 14 14 13 14 14 14 13 13 13 13 13 12 11 8 13 14 11 8 14 27 19 15 15 13 13 13 12 12 12 13 13 12 13 12 12
3 3 4 4 4 4 5 5 5 7 8 8 8 9 9 10 10 10 10 10 10 10 11 12 11 12 12 12 12 12 12 12 12 12 13 12 12 13 13 14 14 14 14 14 14 14 13 13 13 12 12 12 11 11 10 10 10 7 11 28 17 13 13 13 13 11 11 11 11 10 10 5 2 7
3 4 4 4 5 4 5 5 5 7 8 8 8 9 9 10 9 9 10 10 10 11 11 11 12 12 12 12 12 12 12 13 13 12 13 13 13 13 13 13 14 15 15 15 15 14 14 13 12 12 12 10 10 12 12 12 10 4 3 10 27 19 11 8 9 9 9 10 10 10 7 2 5 2
3 4 4 4 5 5 5 5 6 7 8 8 9 9 9 10 10 10 10 11 11 11 11 11 11 12 12 12 12 12 13 13 12 12 13 13 14 14 16 16 14 13 14 15 15 15 15 13 14 21 17 10 11 11 9 8 9 7 5 2 6 15 12 8 7 6 7 5 5 6 10 8 5 4
3 4 4 4 4 5 5 6 6 6 7 7 8 9 9 10 9 13 12 12 11 10 10 11 11 11 12 12 12 12 12 13 13 13 13 13 13 14 15 13 12 13 13 14 15 15 15 15 15 13 12 11 9 8 9 10 9 3 2 1 2 3 3 5 2 7 4 1 3 2 2 2 3 4
4 4 4 4 4 5 5 6 6 6 6 6 7 8 9 9 9 10 9 9 9 9 10 11 11 11 11 12 12 12 12 13 12 13 14 14 13 14 13 13 13 14 13 14 14 15 15 14 12 11 9 8 8 8 9 10 8 1 2 1 1 1 3 5 1 6 13 15 11 4 1 2 3 4
3 4 4 4 4 5 5 5 5 5 6 6 7 8 8 8 9 9 9 9 10 10 10 11 11 12 12 13 13 13 12 12 12 13 13 13 14 13 13 14 14 14 13 13 13 13 13 12 11 9 8 8 7 7 8 8 6 3 1 2 2 2 3 4 5 7 9 14 15 8 10 10 9 9
3 4 4 4 5 5 5 5 5 5 5 6 7 7 8 8 9 9 9 9 9 10 10 11 12 12 12 12 12 13 13 14 13 12 12 13 13 13 13 13 13 13 13 12 12 12 11 11 10 8 7 6 4 4 5 4 5 2 1 3 3 3 3 2 2 3 4 4 11 11 7 6 8 9
Wind_Direction
315 324 316 311 307 309 314 304 301 305 298 294 293 288 293 301 296 308 308 304 308 311 313 305 296 295 295 297 302 301 294 296 301 297 293 290 289 288 292 296 299 300 298 296 296 296 295 294 291 288 285 283 281 280 280 279 278 276 274 273 272 271 278 276 278 256 243 231 221 222 226 232 243 249
331 317 317 309 305 306 304 301 298 292 291 287 287 289 287 280 281 290 296 296 293 295 299 292 298 302 301 298 294 290 287 280 285 290 289 287 285 289 292 291 292 291 291 292 291 291 290 289 288 286 284 282 280 279 278 278 278 277 276 274 272 272 269 269 268 266 249 235 223 221 221 223 226 229
319 313 305 303 297 304 300 295 291 287 285 290 293 289 285 277 272 277 283 289 283 287 297 293 288 297 297 295 293 289 285 287 286 287 283 281 283 287 285 277 275 279 284 287 287 286 286 286 285 285 284 283 282 280 279 279 279 279 278 275 274 272 270 268 268 266 251 236 225 221 219 221 223 227
307 308 308 308 308 312 309 304 303 299 295 292 290 288 284 280 274 273 275 270 282 291 286 284 285 281 290 296 295 294 293 287 278 285 283 282 284 281 282 277 276 279 280 282 284 285 286 284 284 283 283 282 281 280 278 277 277 277 278 276 274 270 269 268 266 266 250 229 221 221 218 220 223 224
308 309 307 308 308 309 307 309 310 305 302 300 292 290 286 280 276 274 274 278 286 288 282 281 285 287 286 285 284 292 298 298 299 296 291 287 284 281 280 280 274 271 274 277 279 281 284 284 282 280 279 279 278 278 277 276 275 274 274 275 274 272 270 268 265 261 254 236 224 221 220 219 220 222
308 305 305 306 311 313 307 306 304 303 302 299 294 290 288 283 282 275 276 279 281 289 298 293 289 292 284 280 285 291 301 303 305 300 295 289 285 280 278 277 276 273 274 275 275 275 278 281 282 280 279 279 278 277 277 276 274 272 273 272 272 271 268 266 266 264 260 249 236 227 223 221 222 223
308 305 306 307 312 314 307 304 301 299 295 295 293 290 289 285 283 282 276 279 281 286 289 295 298 297 299 294 301 304 299 296 298 298 298 297 293 286 281 279 278 277 273 274 274 273 276 279 279 278 279 279 278 277 276 275 273 272 270 270 270 270 267 263 261 261 260 261 251 235 222 220 221 224
308 306 307 307 315 310 305 305 304 301 301 301 297 294 291 288 287 286 283 276 278 285 289 291 294 302 305 308 305 305 301 297 297 298 298 297 296 293 288 284 283 280 277 275 274 274 275 276 276 277 278 278 278 277 275 274 273 271 268 267 267 266 266 264 259 257 258 256 257 252 238 227 225 228
301 304 302 305 308 307 304 304 306 307 305 300 297 294 296 292 291 290 287 286 283 285 284 290 293 299 300 304 305 308 309 305 297 299 300 302 300 298 294 290 285 281 278 273 275 276 275 273 274 276 276 276 277 276 276 274 273 271 269 267 266 266 265 264 260 254 251 252 253 254 256 251 241 232
301 299 300 303 303 304 302 303 305 304 303 303 297 297 297 297 296 293 290 287 287 284 284 288 295 297 302 306 305 309 311 310 309 307 304 298 295 297 301 299 300 301 298 297 288 284 281 276 272 270 271 272 272 274 275 274 272 270 267 265 265 264 264 263 261 256 251 248 248 249 250 251 251 247
296 295 297 297 296 295 298 300 303 307 307 302 300 300 300 299 298 294 293 293 291 288 287 288 288 295 298 300 304 310 310 304 300 302 307 305 308 311 312 308 304 300 297 293 290 286 282 277 277 276 274 272 272 270 272 273 270 267 265 265 265 264 263 262 261 259 254 248 245 244 245 247 248 246
295 293 290 289 291 290 295 304 304 305 303 303 300 300 301 300 300 298 298 298 295 294 294 291 296 297 299 302 299 303 307 304 303 309 313 307 306 302 298 296 301 305 304 302 300 294 288 281 276 274 269 264 263 264 265 265 265 263 263 264 265 266 265 264 261 259 256 250 245 243 241 241 242 244
292 290 290 289 290 296 295 294 292 289 290 294 295 296 298 299 298 295 297 298 297 294 291 292 294 294 295 297 303 306 306 304 305 310 305 296 296 302 307 305 302 306 309 311 310 306 307 303 297 287 284 283 280 271 261 260 261 261 262 262 262 261 262 263 262 260 257 253 247 242 240 239 238 238
294 293 292 292 294 291 291 291 289 289 292 289 286 290 295 295 295 295 296 294 295 293 292 292 297 296 295 300 304 304 303 303 302 301 301 298 302 305 300 294 295 305 304 303 299 299 305 307 305 302 294 290 285 282 276 272 271 269 268 265 262 260 260 260 261 260 258 254 249 244 239 238 237 236
296 296 297 296 297 296 292 291 294 294 297 294 292 291 290 290 290 294 293 291 293 293 291 293 292 291 292 294 294 292 296 294 294 294 296 295 298 299 301 301 307 315 317 310 303 294 294 291 287 285 283 288 291 288 280 281 278 269 264 268 269 268 266 264 262 260 259 256 251 245 241 238 236 235
296 298 297 295 294 292 295 298 298 293 292 295 295 294 293 291 288 285 285 290 291 286 286 285 283 287 288 290 292 292 292 294 295 296 296 294 295 297 297 296 299 311 317 305 298 293 294 297 290 284 277 275 276 277 280 280 278 276 271 267 268 267 264 261 260 260 260 259 256 250 243 239 237 234
292 293 295 295 291 289 290 290 292 294 295 295 298 294 291 288 286 284 282 277 275 279 278 279 279 277 283 284 285 284 287 290 290 291 287 287 287 289 291 291 296 300 309 299 291 288 288 297 290 285 283 281 280 278 278 278 276 272 267 265 263 262 262 261 259 258 259 260 258 255 247 240 237 235
288 290 292 293 292 292 294 294 295 298 299 299 296 292 287 281 275 273 273 276 276 274 273 274 274 275 271 275 279 281 282 282 282 283 281 282 281 280 279 288 291 294 292 283 289 285 283 288 287 284 289 292 286 281 277 275 275 274 272 270 268 266 265 264 261 258 258 258 258 257 254 246 239 236
286 289 286 288 290 293 295 296 296 297 295 294 289 279 268 264 266 266 266 268 272 271 268 267 270 270 269 268 269 270 271 271 272 271 273 274 273 277 280 282 281 284 280 280 280 278 289 302 286 282 287 290 288 285 281 277 277 276 275 275 273 270 267 266 265 262 258 256 256 256 256 252 243 237
280 283 283 287 292 291 290 291 290 291 293 291 286 279 267 260 258 259 255 260 263 265 266 266 263 262 259 257 259 256 256 256 256 259 263 272 278 286 289 288 292 284 282 274 275 279 285 295 290 288 290 291 286 283 282 281 276 275 274 273 273 272 269 268 266 264 261 257 255 255 255 254 249 241
280 276 276 281 286 289 287 290 293 294 295 291 283 275 266 255 249 248 260 264 267 265 264 264 265 268 271 271 273 274 274 278 281 285 286 285 288 286 288 287 287 283 283 275 272 277 283 291 288 288 287 285 282 283 281 279 280 278 274 273 272 271 269 266 267 265 262 259 256 254 254 253 252 246
280 276 277 279 283 283 285 289 293 296 298 295 290 286 283 280 271 271 268 272 265 268 267 270 271 272 275 276 279 280 280 280 283 282 281 283 284 281 280 282 283 282 278 278 279 277 276 289 285 288 289 288 277 280 283 286 282 277 274 270 269 268 267 268 267 266 263 261 258 256 254 254 252 248
280 285 286 285 284 282 285 292 298 300 301 295 289 287 281 278 275 274 277 271 274 270 267 265 269 269 270 270 270 270 271 271 271 272 272 276 275 277 276 277 283 282 272 272 274 277 283 289 287 298 302 294 285 277 275 274 283 295 303 294 278 271 269 267 265 265 265 262 259 257 254 252 250 246
274 277 287 287 289 291 295 297 299 299 297 295 293 290 288 287 286 287 286 282 277 277 270 267 264 267 269 269 265 265 264 263 261 264 268 270 271 273 274 273 272 272 277 276 281 280 285 288 288 289 285 296 297 298 298 298 291 284 282 288 291 284 279 272 263 262 263 261 259 257 255 252 247 244
285 296 295 296 296 297 300 301 301 300 301 303 302 302 297 295 299 305 305 305 303 300 303 302 301 298 292 287 280 275 270 265 262 261 264 263 263 266 269 271 271 271 273 275 278 278 280 281 283 287 280 277 279 291 287 287 285 286 294 292 285 278 279 277 278 275 271 262 255 252 252 252 248 242
291 286 292 298 301 301 303 306 310 312 312 312 311 305 305 305 307 308 306 309 318 317 309 302 296 292 287 284 279 278 276 273 272 269 266 264 265 264 265 267 271 274 274 277 279 280 284 280 281 285 282 283 282 281 290 285 284 292 286 280 284 287 278 275 273 273 270 267 265 254 249 245 246 245
292 296 299 301 303 308 313 314 313 313 313 314 307 307 309 311 312 314 316 316 311 309 308 304 297 293 286 281 280 278 276 274 273 271 267 266 266 266 266 266 267 269 274 278 278 276 275 276 276 276 280 280 283 285 278 285 290 290 288 287 284 276 277 277 267 262 261 261 260 259 259 254 245 241
296 302 307 309 313 315 316 315 315 313 312 308 310 313 315 319 321 318 314 313 311 309 303 299 295 292 288 285 281 278 278 280 279 278 275 272 269 267 267 267 267 268 271 273 272 268 267 270 271 264 267 272 273 275 279 277 280 286 283 280 280 281 278 271 272 270 264 262 262 260 259 256 246 241
305 308 310 314 317 317 315 315 315 314 313 314 317 320 324 327 324 320 316 313 309 303 299 297 294 291 288 286 285 285 284 284 282 277 274 271 268 266 262 258 253 257 258 264 261 258 260 263 266 267 263 261 264 268 270 275 279 279 280 284 276 271 274 273 264 262 262 262 262 257 256 253 250 238
308 308 312 315 316 315 318 318 317 314 314 317 321 325 328 327 324 321 317 312 311 304 302 300 296 296 296 293 294 292 288 283 279 280 279 279 272 269 269 271 267 261 254 249 258 265 264 263 261 262 262 261 258 264 265 271 271 269 272 271 276 278 264 263 269 271 260 254 255 256 254 253 249 245
307 316 318 313 313 312 312 314 312 311 317 322 325 328 327 320 314 312 309 306 302 300 297 298 296 296 294 293 292 291 293 291 288 287 287 284 282 280 277 276 276 275 271 264 266 268 267 264 259 259 260 260 259 256 261 260 266 267 267 268 271 268 267 269 267 257 260 258 260 255 254 248 247 237
342 318 310 307 303 310 315 318 318 318 319 320 324 323 319 311 304 303 303 301 296 295 297 296 297 294 298 297 296 296 294 291 290 290 289 288 287 284 282 277 274 275 281 280 277 267 256 255 256 253 251 252 252 253 252 253 258 262 264 263 262 262 260 256 260 266 259 256 254 255 249 246 243 240
326 312 305 305 315 319 320 323 321 323 326 326 320 310 313 313 310 309 313 311 308 307 306 302 299 297 296 296 296 295 293 291 293 293 293 292 292 292 285 279 279 279 279 280 280 279 272 264 249 247 250 249 247 249 252 256 252 253 259 262 261 259 258 252 255 256 258 254 255 254 251 245 241 237
320 308 304 306 315 319 322 321 321 325 331 327 323 319 321 319 313 311 310 308 311 310 307 304 302 300 299 298 297 296 296 296 295 295 296 296 295 292 288 284 281 279 276 280 282 280 281 272 265 253 242 238 240 239 240 245 251 250 250 257 256 258 254 253 250 253 254 251 248 249 246 244 239 237
305 303 300 302 304 307 312 321 317 321 322 325 320 317 319 319 314 313 310 312 314 312 307 305 303 303 302 300 300 301 300 300 299 301 299 297 294 290 290 288 287 283 281 281 280 280 278 277 275 270 262 257 253 243 228 230 246 246 249 246 252 252 256 248 245 241 245 248 245 248 249 244 239 229
291 283 287 296 300 309 307 309 316 319 313 311 306 307 312 311 316 313 312 314 311 305 302 306 309 309 308 305 304 302 302 301 300 299 298 296 296 294 291 289 288 286 283 280 281 280 278 277 277 269 264 257 247 257 259 224 221 236 239 246 242 247 247 247 243 244 242 243 242 243 245 241 236 231
284 277 280 282 290 297 301 305 311 312 303 301 301 298 297 299 305 308 306 304 297 296 301 307 306 310 307 307 305 304 302 303 302 301 298 297 295 295 294 294 293 292 289 284 281 282 280 277 275 267 256 254 253 259 261 259 218 217 227 238 243 241 243 242 239 232 234 237 239 239 242 241 238 234
266 278 275 274 277 288 291 296 303 305 305 300 294 293 291 292 295 298 301 301 301 298 299 305 308 308 308 308 308 305 304 302 301 299 298 298 298 298 298 297 297 295 295 293 290 282 277 275 275 277 277 270 264 262 272 264 257 228 213 221 235 241 239 238 233 231 233 231 235 235 235 238 237 235
257 267 272 276 280 281 288 293 299 301 300 296 295 292 293 295 296 299 302 301 297 299 309 310 310 311 311 310 308 308 306 305 304 303 301 300 298 297 298 298 297 297 297 296 294 290 285 281 277 278 275 278 273 277 275 280 264 277 227 212 218 231 235 235 232 230 231 232 226 227 230 237 60 71
255 261 267 272 278 280 281 285 291 299 299 292 293 291 292 293 295 298 298 300 304 310 311 309 310 311 311 311 311 309 306 302 301 299 300 299 299 297 295 296 296 297 296 293 293 291 286 283 283 279 285 288 297 294 294 283 280 253 270 231 216 216 231 234 241 238 232 229 228 221 208 160 205 192
253 259 263 267 275 279 278 282 284 293 292 292 289 289 287 288 290 290 293 299 305 308 311 313 313 314 313 314 314 312 308 307 304 302 302 301 298 298 296 298 294 293 292 292 293 292 290 292 294 296 293 288 285 286 272 259 250 248 230 254 261 235 243 252 247 239 239 222 217 220 213 202 199 193
248 253 260 263 266 271 274 274 277 280 285 293 292 292 293 293 288 293 296 299 303 307 311 314 317 317 315 315 314 314 310 306 305 303 304 304 302 300 299 297 294 294 293 293 293 292 294 293 290 284 287 286 283 270 266 267 270 245 149 24 325 358 337 254 26 30 347 283 207 184 73 64 178 189
245 252 258 260 261 264 265 268 270 274 282 286 286 289 291 293 295 299 300 302 307 308 312 316 316 316 315 315 313 312 310 307 306 305 303 303 303 301 300 298 295 295 292 290 289 292 294 297 293 294 290 284 275 272 274 278 283 246 134 146 93 50 28 7 335 67 55 41 27 29 33 159 158 202
252 259 260 262 265 265 263 262 268 272 277 280 284 287 286 291 294 296 301 303 306 309 313 316 317 316 317 317 316 314 311 309 308 307 305 302 300 299 298 298 298 296 295 293 296 298 304 305 306 301 295 288 291 291 294 305 276 237 161 109 105 107 91 51 37 49 46 36 27 37 66 66 67 59
255 260 269 269 269 271 266 266 268 275 279 282 285 285 287 286 288 295 297 300 302 307 310 315 316 315 316 318 319 316 314 313 311 305 304 303 302 301 299 299 299 300 298 300 299 303 309 313 310 304 294 299 323 316 313 316 329 348 93 130 129 113 98 102 80 39 33 20 7 15 59 74 82 81